sat.trackr.live / text

‹ back to catalog

SHIYAN-10 01 (SY-10 01)

NORAD 49258 · 2021-087A

PAYLOAD ACTIVE UNKNOWN

§ Identity

Operator
Country
PRC
Launch date
2021-09-27
Launch site
XICLF
Launch vehicle
Mass (kg)
RCS (m²)

External: N2YO · Heavens-Above · Gunter

§ Orbital elements

Epoch: 2026-05-22T23:33:00.274752Z

Period
717.72 min
Inclination
63.1042°
Eccentricity
0.6937178
Mean motion
2.00634461 rev/d
Perigee alt
1,754.9 km
Apogee alt
38,597.0 km
Semi-major
26,554.1 km
B*
0.0000e+0
RAAN
222.9236°
Arg perigee
269.8776°
Mean anomaly
17.5667°
Rev number
3,402

§ Raw data

SHIYAN-10 01 (SY-10 01)1 49258U 21087A   26142.98125318  .00000657  00000+0  00000+0 0  99942 49258  63.1042 222.9236 6937178 269.8776  17.5667  2.00634461 34025

JSON: /api/v1/satellites/49258 · /tle

For live sub-satellite position, see the globe view (requires WebGL).

§ Visibility from observer

Set your observer location to see the next 7 days of passes ≥ 10°. The values pass through the URL so the page stays shareable.

No JS? Fill the form by hand. The geolocation button needs JavaScript.